Location: Newark
(49.3000°N, 9.4667°E)
Time: 08:47:58
(UTC+00:00)

A-11 Canister half - All Passes

Search period start: 19 May 2019 00:00
Search period end: 29 May 2019 00:00
Orbit: 1524 x 1684 km, 47.3° (Epoch: 16 May)

Date Brightness Start Highest point End Pass type
(mag) Time Alt. Az. Time Alt. Az. Time Alt. Az.
19 May - 10:59:01 10° SSE 11:04:27 17° SE 11:09:59 10° E daylight
19 May - 12:58:41 10° SW 13:07:33 48° SSE 13:16:43 10° ENE daylight
19 May - 15:02:27 10° WSW 15:11:59 78° S 15:21:52 10° E daylight
19 May - 17:07:16 10° W 17:16:55 73° SSW 17:26:54 10° ESE daylight
19 May - 19:12:17 10° WNW 19:21:13 41° SW 19:30:21 10° SSE daylight
19 May - 21:20:19 10° W 21:24:11 13° WSW 21:28:04 10° SSW visible
20 May - 10:37:52 10° SSE 10:42:57 16° SE 10:48:05 10° E daylight
20 May - 12:37:11 10° SW 12:45:59 47° SE 12:55:03 10° ENE daylight
20 May - 14:40:51 10° WSW 14:50:21 77° S 15:00:12 10° E daylight
20 May - 16:45:40 10° W 16:55:17 74° SSW 17:05:15 10° ESE daylight
20 May - 18:50:39 10° WNW 18:59:38 43° SW 19:08:50 10° SSE daylight
20 May - 20:58:15 10° W 21:02:40 14° SW 21:07:06 10° SSW visible
21 May - 10:16:47 10° SSE 10:21:26 15° SE 10:26:09 10° E daylight
21 May - 12:15:42 10° SSW 12:24:24 45° SE 12:33:22 10° ENE daylight
21 May - 14:19:15 10° WSW 14:28:43 76° SSE 14:38:33 10° E daylight
21 May - 16:24:02 10° W 16:33:39 75° SSW 16:43:36 10° ESE daylight
21 May - 18:29:00 10° WNW 18:38:02 44° SW 18:47:18 10° SSE daylight
21 May - 20:36:16 10° W 20:41:08 15° SW 20:46:03 10° SSW visible
22 May - 09:55:46 10° SSE 09:59:56 14° SE 10:04:08 10° E daylight
22 May - 11:54:13 10° SSW 12:02:50 43° SE 12:11:42 10° ENE daylight
22 May - 13:57:40 10° WSW 14:07:06 75° SSE 14:16:53 10° E daylight
22 May - 16:02:26 10° W 16:12:01 76° SSW 16:21:57 10° ESE daylight
22 May - 18:07:22 10° WNW 18:16:26 46° SW 18:25:46 10° SSE daylight
22 May - 20:14:20 10° W 20:19:36 16° SW 20:24:56 10° SSW visible
23 May - 09:34:51 10° SSE 09:38:26 13° ESE 09:42:04 10° E daylight
23 May - 11:32:44 10° SSW 11:41:16 42° SE 11:50:02 10° ENE daylight
23 May - 13:36:05 10° WSW 13:45:29 74° SSE 13:55:13 10° E daylight
23 May - 15:40:49 10° W 15:50:24 77° S 16:00:18 10° ESE daylight
23 May - 17:45:45 10° WNW 17:54:51 47° SSW 18:04:13 10° SE daylight
23 May - 19:52:27 10° W 19:58:04 17° SW 20:03:45 10° SSW visible
24 May - 09:14:04 10° SE 09:16:57 12° ESE 09:19:50 10° ESE daylight
24 May - 11:11:16 10° SSW 11:19:43 40° SE 11:28:21 10° ENE daylight
24 May - 13:14:29 10° WSW 13:23:51 73° SSE 13:33:34 10° E daylight
24 May - 15:19:12 10° W 15:28:45 78° S 15:38:38 10° ESE daylight
24 May - 17:24:07 10° WNW 17:33:15 49° SSW 17:42:40 10° SE daylight
24 May - 19:30:37 10° W 19:36:32 18° SW 19:42:32 10° SSW daylight
25 May - 08:53:36 10° SE 08:55:27 11° ESE 08:57:19 10° ESE daylight
25 May - 10:49:49 10° SSW 10:58:09 39° SE 11:06:41 10° ENE daylight
25 May - 12:52:54 10° WSW 13:02:14 72° SSE 13:11:54 10° E daylight
25 May - 14:57:36 10° W 15:07:08 78° S 15:17:00 10° ESE daylight
25 May - 17:02:29 10° WNW 17:11:39 50° SSW 17:21:06 10° SE daylight
25 May - 19:08:47 10° W 19:14:59 19° SW 19:21:18 10° SSW daylight
26 May - 10:28:21 10° SSW 10:36:36 37° SE 10:45:00 10° ENE daylight
26 May - 12:31:19 10° WSW 12:40:38 71° SSE 12:50:15 10° E daylight
26 May - 14:36:00 10° W 14:45:30 79° S 14:55:20 10° ESE daylight
26 May - 16:40:52 10° WNW 16:50:03 52° SSW 16:59:31 10° SE daylight
26 May - 18:47:00 10° W 18:53:27 20° SW 19:00:01 10° S daylight
27 May - 10:06:55 10° SSW 10:15:03 35° SE 10:23:20 10° ENE daylight
27 May - 12:09:45 10° WSW 12:19:01 70° SSE 12:28:36 10° E daylight
27 May - 14:14:23 10° W 14:23:52 79° S 14:33:41 10° ESE daylight
27 May - 16:19:15 10° WNW 16:28:27 53° SSW 16:37:57 10° SE daylight
27 May - 18:25:14 10° W 18:31:54 21° SW 18:38:43 10° S daylight
28 May - 09:45:30 10° SSW 09:53:30 34° SE 10:01:39 10° E daylight
28 May - 11:48:10 10° WSW 11:57:25 68° SSE 12:06:57 10° E daylight
28 May - 13:52:47 10° W 14:02:14 80° S 14:12:02 10° E daylight
28 May - 15:57:38 10° WNW 16:06:51 55° SSW 16:16:22 10° SE daylight
28 May - 18:03:29 10° W 18:10:22 22° SW 18:17:23 10° S daylight
